FW9836 Weather Reports


Display with metric or nautical units.
time (UTC)temp
F
wind
direction
speed
MPH
gust
MPH
rain 1hr
in
rain 24hr
in
rain mn
in
humidity
%
barometer
mb
20260902050525 53 180 0.0 0.0 0.00 0.00 0.00 89 1024.0
20260902045523 53 180 0.0 0.0 0.00 0.00 0.00 89 1024.0
20260902044523 53 180 0.0 0.0 0.00 0.00 0.00 89 1023.8
20260902043523 54 180 0.0 0.0 0.00 0.00 0.00 89 1023.9
20260902042524 54 180 0.0 0.0 0.00 0.00 0.00 89 1023.7
20260902041624 54 180 0.0 0.0 0.00 0.00 0.00 87 1023.6
20260902040722 54 180 0.0 1.0 0.00 0.00 0.00 87 1023.5
20260902035811 54 180 0.0 0.0 0.00 0.00 0.00 88 1023.4
20260902034907 54 180 0.0 0.0 0.00 0.00 0.00 88 1023.4
20260902034007 54 180 0.0 0.0 0.00 0.00 0.00 88 1023.3
20260902033009 54 180 0.0 0.0 0.00 0.00 0.00 87 1023.1
20260902032010 55 180 0.0 0.0 0.00 0.00 0.00 87 1023.1
20260902031009 55 180 0.0 0.0 0.00 0.00 0.00 87 1023.1
20260902030010 55 180 0.0 0.0 0.00 0.00 0.00 85 1023.1
20260902025107 55 180 0.0 0.0 0.00 0.00 0.00 86 1023.2
20260902024110 55 180 0.0 0.0 0.00 0.00 0.00 85 1023.0
20260902023109 55 180 0.0 0.0 0.00 0.00 0.00 85 1022.9
20260902022108 55 180 0.0 0.0 0.00 0.00 0.00 85 1023.0
20260902021108 55 180 0.0 0.0 0.00 0.00 0.00 85 1022.9
20260902020110 56 180 0.0 0.0 0.00 0.00 0.00 84 1022.8
20260902015110 56 180 0.0 0.0 0.00 0.00 0.00 82 1022.9
20260902014109 56 180 0.0 0.0 0.00 0.00 0.00 82 1022.8
20260902013110 57 180 0.0 0.0 0.00 0.00 0.00 81 1022.8
20260902012109 57 180 0.0 0.0 0.00 0.00 0.00 81 1022.8
20260902011111 57 180 0.0 0.0 0.00 0.00 0.00 80 1022.8
20260902010109 57 180 0.0 0.0 0.00 0.00 0.00 80 1022.8
20260902005108 58 180 0.0 0.0 0.00 0.00 0.00 79 1022.6
20260902004107 58 180 0.0 0.0 0.00 0.00 0.00 78 1022.8
20260902002208 58 180 0.0 0.0 0.00 0.00 0.00 78 1022.8
20260902001209 58 180 0.0 0.0 0.00 0.00 0.00 77 1022.8
20260902000211 59 180 0.0 0.0 0.00 0.00 0.00 76 1022.6
20260901235209 60 180 0.0 0.0 0.00 0.00 0.00 75 1022.6
20260901234308 61 180 0.0 0.0 0.00 0.00 0.00 74 1022.5
20260901233309 61 180 0.0 0.0 0.00 0.00 0.00 72 1022.5
20260901232310 62 180 0.0 0.0 0.00 0.00 0.00 72 1022.3
20260901231309 63 180 0.0 0.0 0.00 0.00 0.00 70 1022.1
20260901230310 64 180 0.0 0.0 0.00 0.00 0.00 70 1022.0
20260901224408 66 180 0.0 0.0 0.00 0.00 0.00 66 1021.8
20260901223409 67 180 0.0 0.0 0.00 0.00 0.00 64 1021.8
20260901221510 68 180 0.0 0.0 0.00 0.00 0.00 63 1021.7
20260901220608 68 180 0.0 0.0 0.00 0.00 0.00 61 1021.6
20260901215609 69 180 0.0 1.0 0.00 0.00 0.00 60 1021.5
20260901214610 70 180 1.0 2.0 0.00 0.00 0.00 58 1021.3
20260901213609 70 180 0.0 0.0 0.00 0.00 0.00 56 1021.2
20260901212610 71 180 0.0 2.0 0.00 0.00 0.00 55 1021.2
20260901211608 71 180 0.0 3.0 0.00 0.00 0.00 56 1021.1
20260901210609 70 180 1.0 4.0 0.00 0.00 0.00 55 1021.0
20260901205608 70 183 2.0 4.0 0.00 0.00 0.00 55 1021.0
20260901204608 71 180 2.0 6.0 0.00 0.00 0.00 54 1020.9
20260901203608 71 184 3.0 6.0 0.00 0.00 0.00 53 1021.0
20260901202609 71 180 2.0 5.0 0.00 0.00 0.00 53 1020.9
20260901201609 71 180 4.0 5.0 0.00 0.00 0.00 54 1020.9
20260901200609 71 180 3.0 6.0 0.00 0.00 0.00 53 1021.0
20260901195609 71 181 3.0 7.0 0.00 0.00 0.00 54 1020.9
20260901194708 71 180 4.0 8.0 0.00 0.00 0.00 54 1021.0
20260901192708 71 180 2.0 5.0 0.00 0.00 0.00 52 1020.9
20260901192609 72 195 1.0 5.0 0.00 0.00 0.00 53 1021.0
20260901191609 72 180 2.0 4.0 0.00 0.00 0.00 53 1021.0
20260901190707 72 180 2.0 8.0 0.00 0.00 0.00 53 1021.0
20260901185708 72 187 2.0 7.0 0.00 0.00 0.00 53 1020.8
20260901184709 73 185 5.0 11.0 0.00 0.00 0.00 53 1020.7
20260901183711 73 184 2.0 6.0 0.00 0.00 0.00 54 1020.8
20260901182808 73 180 4.0 8.0 0.00 0.00 0.00 54 1020.7
20260901180908 72 192 1.0 3.0 0.00 0.00 0.00 56 1020.9
20260901174106 71 189 2.0 5.0 0.00 0.00 0.00 59 1020.9
20260901173111 72 184 3.0 6.0 0.00 0.00 0.00 57 1021.0
20260901172109 72 203 1.0 4.0 0.00 0.00 0.00 57 1020.9
20260901171207 72 222 2.0 9.0 0.00 0.00 0.00 59 1020.9
20260901165208 71 184 3.0 7.0 0.00 0.00 0.00 62 1020.9
20260901164209 71 193 2.0 5.0 0.00 0.00 0.00 61 1020.9
20260901163209 72 180 0.0 1.0 0.00 0.00 0.00 61 1020.7
20260901162308 71 201 1.0 3.0 0.00 0.00 0.00 62 1020.8
20260901161308 70 180 2.0 7.0 0.00 0.00 0.00 63 1020.9
20260901160309 71 210 2.0 3.0 0.00 0.00 0.00 62 1021.0
20260901155406 71 187 2.0 5.0 0.00 0.00 0.00 61 1021.0
20260901154408 72 192 2.0 6.0 0.00 0.00 0.00 60 1020.9
20260901153409 71 180 2.0 4.0 0.00 0.00 0.00 59 1021.0
20260901151508 72 189 2.0 4.0 0.00 0.00 0.00 59 1021.1
20260901150510 71 180 1.0 3.0 0.00 0.00 0.00 59 1021.2
20260901145509 71 180 2.0 5.0 0.00 0.00 0.00 61 1021.1
20260901144508 70 180 2.0 4.0 0.00 0.00 0.00 61 1021.2
20260901143509 69 234 3.0 6.0 0.00 0.00 0.00 64 1021.3
20260901142607 69 236 1.0 3.0 0.00 0.00 0.00 65 1021.4
20260901141608 69 225 3.0 4.0 0.00 0.00 0.00 63 1021.4
20260901140609 69 180 3.0 5.0 0.00 0.00 0.00 64 1021.3
20260901135707 67 185 3.0 4.0 0.00 0.00 0.00 65 1021.4
20260901134708 67 225 4.0 5.0 0.00 0.00 0.00 67 1021.2
20260901133807 67 180 1.0 2.0 0.00 0.00 0.00 68 1021.1
20260901130909 66 180 0.0 1.0 0.00 0.00 0.00 67 1021.0
20260901125911 66 180 2.0 3.0 0.00 0.00 0.00 69 1021.0
20260901124910 65 225 0.0 0.0 0.00 0.00 0.00 71 1020.9
20260901123910 65 217 0.0 0.0 0.00 0.00 0.00 73 1020.8
20260901122909 63 180 0.0 1.0 0.00 0.00 0.00 75 1021.0
20260901121908 62 180 0.0 0.0 0.00 0.00 0.00 79 1021.0
20260901120907 60 180 0.0 1.0 0.00 0.00 0.00 83 1020.9
20260901115909 58 180 0.0 0.0 0.00 0.00 0.00 83 1021.0
20260901115008 57 180 0.0 0.0 0.00 0.00 0.00 84 1020.7
20260901114009 57 180 0.0 1.0 0.00 0.00 0.00 85 1020.8
20260901113010 56 180 0.0 2.0 0.00 0.00 0.00 87 1020.9
20260901112108 55 180 0.0 2.0 0.00 0.00 0.00 88 1020.7
20260901111109 54 180 0.0 1.0 0.00 0.00 0.00 91 1020.7
20260901105207 53 180 0.0 2.0 0.00 0.00 0.00 92 1020.5
20260901104209 52 180 0.0 4.0 0.00 0.00 0.00 91 1020.5
20260901102209 52 180 0.0 0.0 0.00 0.00 0.00 91 1020.3
20260901095407 52 180 0.0 0.0 0.00 0.00 0.00 90 1020.3
20260901094409 52 180 0.0 0.0 0.00 0.00 0.00 90 1020.3
20260901093409 53 180 0.0 0.0 0.00 0.00 0.00 90 1020.3
20260901092508 52 180 0.0 0.0 0.00 0.00 0.00 90 1020.5
20260901091526 52 180 1.0 2.0 0.00 0.00 0.00 90 1020.3
20260901085610 52 225 0.0 0.0 0.00 0.00 0.00 90 1020.4
20260901084706 52 225 0.0 0.0 0.00 0.00 0.00 89 1020.3
20260901083707 53 225 0.0 0.0 0.00 0.00 0.00 89 1020.4
20260901082710 53 225 0.0 0.0 0.00 0.00 0.00 90 1020.4
20260901081808 52 225 0.0 0.0 0.00 0.00 0.00 90 1020.5
20260901080809 52 225 0.0 0.0 0.00 0.00 0.00 90 1020.5
20260901075908 52 225 0.0 0.0 0.00 0.00 0.00 90 1020.7
20260901074909 52 225 0.0 0.0 0.00 0.00 0.00 89 1020.5
20260901073906 52 225 0.0 0.0 0.00 0.00 0.00 89 1020.5
20260901072909 53 225 0.0 0.0 0.00 0.00 0.00 89 1020.3
20260901072008 53 225 0.0 0.0 0.00 0.00 0.00 88 1020.6
20260901071010 53 225 0.0 0.0 0.00 0.00 0.00 88 1020.5
20260901070007 53 180 0.0 0.0 0.00 0.00 0.00 88 1020.5
20260901064008 53 180 0.0 0.0 0.00 0.00 0.00 89 1020.5
20260901063009 52 180 0.0 0.0 0.00 0.00 0.00 87 1020.4
20260901061108 53 180 0.0 0.0 0.00 0.00 0.00 87 1020.5
20260901060207 53 180 0.0 0.0 0.00 0.00 0.00 88 1020.5
20260901055209 53 247 0.0 0.0 0.00 0.00 0.00 88 1020.4
20260901054209 53 247 0.0 0.0 0.00 0.01 0.00 87 1020.2
20260901053210 53 247 0.0 0.0 0.00 0.01 0.00 88 1020.3